Showing default

AAC-AIS-SAT3, 58997

Orbit data source: Space-Track

AAC-AIS-SAT3, 58997 is a UK payload satellite in SSO that was launched on Sat, 11 Nov 2023 UTC via an FALCON 9 launch vehicle from the Air Force Western Test Range (AFWTR). Payload-class satellites include a variety of spacecraft equipped with specific instruments for various scientific and technological missions. These include communications satellites like Starlink; space stations such as the ISS; scientific satellites like the Hubble; Earth observation satellites from companies like Planet Labs, Umbra, and HawkEye 360; GPS; miniature CubeSats for education and research; and military/defense satellites.

Loading next visibility...
Identifier
58997, 2023-174DJ
Orbit
SSO
Country
Flag of UKUK
Related business
Manufacturer
AAC ClydeSpace
Mission
Operational Commercial Communications
Bus & Motor
CUBESAT 3U, Unknown motor
Mass
5 kg wet, 5 kg dry
Launch date (UTC)
2023-11-11 (2 years ago)
Launch vehicle
FALCON 9
Launch site
Air Force Western Test Range (AFWTR)
Object type
Payload
Rocket body
Debris
Shape & HBR
Box, 1.0 m
Radar Cross Section
0.080 m², Medium (>0.1 m² and < 1m²)

Expand to show TLE details & history
Last TLE update: 5 hours ago

TLE from 5 hours ago
0 AAC-AIS-SAT3
1 58997U 23174DJ  26126.88798359  .00003001  00000-0  36190-3 0  9995
2 58997  97.6265 177.3278 0008221  97.7874 262.4274 14.84502892135026
Epoch: 2026-05-06T21:18Z
TLE epoch observation values (Epoch: 2026-05-06T21:18:41.782Z)
Latitude
-0.00009°
Longitude
-7.0883°
Altitude
618.945 km
Speed
7.549 km/s
True Right ascension
11h 49m 18s
True Declination
0° 00' 00"
Sunlit
Object was in full shadow at epoch
Visualization orbit readout
Latitude
Unknown
Longitude
Unknown
Altitude
Unknown
Speed
Unknown
Apparent Right ascension
Unknown
Apparent Declination
Unknown
Sunlit
N/A
Visualization observer readout
Local Sidereal Time
10:21:47
Azimuth
Unknown
Elevation
Unknown
Doppler factor
Unknown
Orbital elements
Apogee altitude
617.916 km
Perigee altitude
606.423 km
Semi-major axis
6,990.306 km
Eccentricity
0.00082
Inclination
97.6265°
RAAN
177.3278°
Arg. of periapsis
97.7874°
True anomaly
262.33403°
Mean anomaly
262.4274°
Eccentric anomaly
262.38071°
Mean motion
3.71363 °/min
Orbital period
96.94 mins
BSTAR
0.0003619
Loading maneuver chart data...
Computing Atmospheric mass density...
Loading historical data...
Loading historical data...
Loading historical data...
Loading historical data...
Loading historical data...
Loading historical data...
Loading historical data...

Documentation

Showing up to 5 results
|